Location: Asheville, NC
(35.6000°N, 82.5500°W)
Time: 02:49:22
(UTC-05:00)

UWE-3 - Pass Details

Date: 05 January 2018
Orbit: 587 x 683 km, 97.6° (Epoch: 21 January)

Event Time Altitude Azimuth Distance (km) Brightness Sun altitude
Rises 18:24:06 0° 127° (SE) 2,821 ? -10.6°
Reaches altitude 10° 18:26:54 10° 106° (ESE) 1,937 ? -11.2°
Enters shadow 18:28:03 14° 92° (E) 1,694 ? -11.4°
Exits shadow 18:30:41 15° 48° (NE) 1,662 ? -11.9°
Drops below altitude 10° 18:32:12 10° 29° (NNE) 1,975 ? -12.2°
Sets 18:35:05 0° 8° (N) 2,906 ? -12.7°
